| time (UTC) | temp C | wind direction | speed KPH | gust KPH | rain 1hr cm | rain 24hr cm | rain mn cm | humidity % | barometer mb |
| 20260504044524 | 7 | 269 | 0.0 | 8.0 | 0.00 | 0.00 | 0.00 | 58 | 1013.1 |
| 20260504043024 | 6 | 237 | 3.2 | 11.3 | 0.00 | 0.00 | 0.00 | 58 | 1013.1 |
| 20260504041538 | 7 | 250 | 3.2 | 9.7 | 0.00 | 0.00 | 0.00 | 57 | 1013.0 |
| 20260504040023 | 7 | 243 | 3.2 | 8.0 | 0.00 | 0.00 | 0.00 | 56 | 1013.0 |
| 20260504034523 | 7 | 254 | 1.6 | 12.9 | 0.00 | 0.00 | 0.00 | 55 | 1013.0 |
| 20260504033021 | 7 | 234 | 1.6 | 6.4 | 0.00 | 0.00 | 0.00 | 55 | 1012.9 |
| 20260504031520 | 7 | 257 | 1.6 | 4.8 | 0.00 | 0.00 | 0.00 | 54 | 1013.1 |
| 20260504030020 | 7 | 254 | 0.0 | 4.8 | 0.00 | 0.00 | 0.00 | 53 | 1013.0 |
| 20260504024519 | 8 | 255 | 0.0 | 4.8 | 0.00 | 0.00 | 0.00 | 52 | 1013.0 |
| 20260504023019 | 8 | 257 | 1.6 | 4.8 | 0.00 | 0.00 | 0.00 | 51 | 1013.1 |
| 20260504021518 | 8 | 258 | 0.0 | 6.4 | 0.00 | 0.00 | 0.00 | 50 | 1013.1 |
| 20260504020031 | 8 | 255 | 1.6 | 8.0 | 0.00 | 0.00 | 0.00 | 49 | 1013.0 |
| 20260504014521 | 8 | 271 | 3.2 | 9.7 | 0.00 | 0.00 | 0.00 | 48 | 1012.9 |
| 20260504013017 | 9 | 276 | 1.6 | 8.0 | 0.00 | 0.00 | 0.00 | 47 | 1012.7 |
| 20260504011517 | 9 | 279 | 1.6 | 11.3 | 0.00 | 0.00 | 0.00 | 46 | 1012.8 |
| 20260504010016 | 10 | 303 | 3.2 | 12.9 | 0.00 | 0.00 | 0.00 | 45 | 1012.7 |
| 20260504004516 | 10 | 279 | 3.2 | 9.7 | 0.00 | 0.00 | 0.00 | 45 | 1012.8 |
| 20260504003016 | 10 | 294 | 3.2 | 12.9 | 0.00 | 0.00 | 0.00 | 44 | 1012.6 |
| 20260504001522 | 10 | 283 | 1.6 | 12.9 | 0.00 | 0.00 | 0.00 | 44 | 1012.7 |
| 20260504000014 | 10 | 287 | 0.0 | 16.1 | 0.00 | 0.00 | 0.00 | 43 | 1012.6 |
| 20260503234515 | 11 | 309 | 3.2 | 19.3 | 0.00 | 0.00 | 0.00 | 42 | 1012.4 |
| 20260503233018 | 11 | 230 | 3.2 | 14.5 | 0.00 | 0.00 | 0.00 | 41 | 1012.4 |
| 20260503231515 | 11 | 267 | 4.8 | 20.9 | 0.00 | 0.00 | 0.00 | 40 | 1012.4 |
| 20260503230033 | 11 | 273 | 8.0 | 24.1 | 0.00 | 0.00 | 0.00 | 39 | 1012.3 |
| 20260503224515 | 12 | 263 | 6.4 | 19.3 | 0.00 | 0.00 | 0.00 | 39 | 1012.3 |
| 20260503223014 | 11 | 276 | 4.8 | 17.7 | 0.00 | 0.00 | 0.00 | 40 | 1012.4 |
| 20260503221515 | 11 | 225 | 6.4 | 22.5 | 0.00 | 0.00 | 0.00 | 40 | 1012.3 |
| 20260503220015 | 12 | 207 | 6.4 | 16.1 | 0.00 | 0.00 | 0.00 | 38 | 1012.5 |
| 20260503214534 | 12 | 296 | 4.8 | 20.9 | 0.00 | 0.00 | 0.00 | 38 | 1012.4 |
| 20260503213014 | 11 | 232 | 8.0 | 25.7 | 0.00 | 0.00 | 0.00 | 39 | 1012.3 |
| 20260503211513 | 11 | 48 | 3.2 | 20.9 | 0.00 | 0.00 | 0.00 | 39 | 1012.2 |
| 20260503210013 | 12 | 260 | 6.4 | 20.9 | 0.00 | 0.00 | 0.00 | 38 | 1012.3 |
| 20260503204512 | 12 | 225 | 3.2 | 19.3 | 0.00 | 0.00 | 0.00 | 37 | 1012.2 |
| 20260503203011 | 11 | 225 | 8.0 | 24.1 | 0.00 | 0.00 | 0.00 | 38 | 1012.4 |
| 20260503201505 | 11 | 284 | 6.4 | 14.5 | 0.00 | 0.00 | 0.00 | 39 | 1012.4 |
| 20260503200004 | 11 | 311 | 6.4 | 19.3 | 0.00 | 0.00 | 0.00 | 40 | 1012.6 |
| 20260503194508 | 11 | 295 | 4.8 | 17.7 | 0.00 | 0.00 | 0.00 | 40 | 1012.8 |
| 20260503193002 | 11 | 282 | 6.4 | 12.9 | 0.00 | 0.00 | 0.00 | 41 | 1013.3 |
| 20260503191511 | 10 | 308 | 4.8 | 27.4 | 0.00 | 0.00 | 0.00 | 42 | 1013.4 |
| 20260503190003 | 10 | 311 | 8.0 | 24.1 | 0.00 | 0.00 | 0.00 | 42 | 1013.5 |
| 20260503184503 | 11 | 262 | 4.8 | 11.3 | 0.00 | 0.00 | 0.00 | 40 | 1013.3 |
| 20260503183002 | 11 | 288 | 8.0 | 27.4 | 0.00 | 0.00 | 0.00 | 40 | 1013.6 |
| 20260503174559 | 11 | 258 | 6.4 | 24.1 | 0.00 | 0.00 | 0.00 | 37 | 1013.7 |
| 20260503173100 | 11 | 67 | 3.2 | 11.3 | 0.00 | 0.00 | 0.00 | 38 | 1013.7 |
| 20260503170106 | 10 | 281 | 9.7 | 25.7 | 0.00 | 0.00 | 0.00 | 38 | 1014.0 |
| 20260503110104 | 0 | 310 | 0.0 | 9.7 | 0.00 | 0.03 | 0.00 | 83 | 1015.3 |
| 20260503054538 | 1 | 9 | 0.0 | 3.2 | 0.00 | 0.03 | 0.03 | 76 | 1014.5 |
| 20260503053030 | 1 | 9 | 0.0 | 0.0 | 0.00 | 0.03 | 0.03 | 76 | 1014.5 |
| 20260503050033 | 1 | 11 | 0.0 | 3.2 | 0.00 | 0.03 | 0.03 | 74 | 1014.8 |